Multibeam Report for KM1404


Ship Name: Kilo Moana
Chief Scientist: Smith, John
University of Hawaii
Source Organization: Rolling Deck to Repository
Start Date: 2014-01-26
End Date: 2014-01-29


View ISO Metadata

Visit the full NCEI Bathymetry Viewer


Multibeam Bathymetry

Cruise Details

Project: ROV Science
Instrument: Kongsberg EM710

Data Quality

Number of Files: 116
Number of Records: 643600
BATHYMETRY DATA Quantity Percentage
Number of Beams 258953536 100%
Number of Good Beams 244605281 94.46%
Number of Zero Beams 0 0%
Number of Flagged Beams 14348255 5.54%

Navigation Totals

Total Time: 59.4899 hours
Total Track Length: 395.7712 km
Average Speed: 6.653 km/hr (3.5923 knots)

Cruise Bounds

Northern Extent: 21.248112
Southern Extent: 20.793434
Western Extent: -157.86314
Eastern Extent: -156.71797

Limits

Minimum Sonar Depth 4.4998 Maximum Sonar Depth 9.4581
Minimum Altitude 29.4856 Maximum Altitude 1895.9823
Minimum Depth 36.5884 Maximum Depth 2249.3701

File Information

Full Resolution Bathymetry as collected (raw): 113

Files File Size Description
0000_20140126_214937_KM122.all.mb58.gz 145.95MB Kongsberg multibeam vendor format
0001_20140126_224938_KM122.all.mb58.gz 230.23MB Kongsberg multibeam vendor format
0002_20140126_234936_KM122.all.mb58.gz 361.47MB Kongsberg multibeam vendor format
0003_20140127_004936_KM122.all.mb58.gz 165.45MB Kongsberg multibeam vendor format
0004_20140127_014937_KM122.all.mb58.gz 275.81MB Kongsberg multibeam vendor format
0005_20140127_024937_KM122.all.mb58.gz 183.35MB Kongsberg multibeam vendor format
0000_20140126_214815_KM710.all.mb58.gz 87.71MB Kongsberg multibeam vendor format
0001_20140126_221814_KM710.all.mb58.gz 8.49MB Kongsberg multibeam vendor format
0002_20140126_224814_KM710.all.mb58.gz 4.74MB Kongsberg multibeam vendor format
0003_20140126_233837_KM710.all.mb58.gz 304.72MB Kongsberg multibeam vendor format
0004_20140127_000837_KM710.all.mb58.gz 288.87MB Kongsberg multibeam vendor format
0005_20140127_003837_KM710.all.mb58.gz 152.76MB Kongsberg multibeam vendor format
0006_20140127_010837_KM710.all.mb58.gz 29.70MB Kongsberg multibeam vendor format
0007_20140127_013838_KM710.all.mb58.gz 93.30MB Kongsberg multibeam vendor format
0008_20140127_020837_KM710.all.mb58.gz 196.72MB Kongsberg multibeam vendor format
0009_20140127_023837_KM710.all.mb58.gz 186.84MB Kongsberg multibeam vendor format
0010_20140127_030837_KM710.all.mb58.gz 152.56MB Kongsberg multibeam vendor format
0011_20140127_033838_KM710.all.mb58.gz 270.98MB Kongsberg multibeam vendor format
0012_20140127_040837_KM710.all.mb58.gz 287.54MB Kongsberg multibeam vendor format
0013_20140127_043837_KM710.all.mb58.gz 285.49MB Kongsberg multibeam vendor format
0014_20140127_050837_KM710.all.mb58.gz 217.54MB Kongsberg multibeam vendor format
0015_20140127_053837_KM710.all.mb58.gz 176.76MB Kongsberg multibeam vendor format
0016_20140127_060838_KM710.all.mb58.gz 154.06MB Kongsberg multibeam vendor format
0017_20140127_063837_KM710.all.mb58.gz 184.23MB Kongsberg multibeam vendor format
0018_20140127_070837_KM710.all.mb58.gz 219.83MB Kongsberg multibeam vendor format
0019_20140127_073837_KM710.all.mb58.gz 132.33MB Kongsberg multibeam vendor format
0020_20140127_080838_KM710.all.mb58.gz 158.19MB Kongsberg multibeam vendor format
0021_20140127_083837_KM710.all.mb58.gz 202.57MB Kongsberg multibeam vendor format
0022_20140127_090837_KM710.all.mb58.gz 233.81MB Kongsberg multibeam vendor format
0023_20140127_093837_KM710.all.mb58.gz 245.83MB Kongsberg multibeam vendor format
0024_20140127_100837_KM710.all.mb58.gz 275.20MB Kongsberg multibeam vendor format
0025_20140127_103838_KM710.all.mb58.gz 277.95MB Kongsberg multibeam vendor format
0026_20140127_110838_KM710.all.mb58.gz 251.64MB Kongsberg multibeam vendor format
0027_20140127_113838_KM710.all.mb58.gz 276.81MB Kongsberg multibeam vendor format
0028_20140127_120837_KM710.all.mb58.gz 275.69MB Kongsberg multibeam vendor format
0029_20140127_123837_KM710.all.mb58.gz 272.10MB Kongsberg multibeam vendor format
0030_20140127_130837_KM710.all.mb58.gz 265.71MB Kongsberg multibeam vendor format
0031_20140127_133837_KM710.all.mb58.gz 263.70MB Kongsberg multibeam vendor format
0032_20140127_140837_KM710.all.mb58.gz 276.29MB Kongsberg multibeam vendor format
0033_20140127_143838_KM710.all.mb58.gz 276.51MB Kongsberg multibeam vendor format
0034_20140127_150837_KM710.all.mb58.gz 277.02MB Kongsberg multibeam vendor format
0035_20140127_153837_KM710.all.mb58.gz 272.82MB Kongsberg multibeam vendor format
0036_20140127_160837_KM710.all.mb58.gz 280.56MB Kongsberg multibeam vendor format
0037_20140127_163838_KM710.all.mb58.gz 283.45MB Kongsberg multibeam vendor format
0038_20140127_170838_KM710.all.mb58.gz 283.82MB Kongsberg multibeam vendor format
0039_20140127_173837_KM710.all.mb58.gz 278.45MB Kongsberg multibeam vendor format
0040_20140127_180838_KM710.all.mb58.gz 268.45MB Kongsberg multibeam vendor format
0041_20140127_183838_KM710.all.mb58.gz 222.14MB Kongsberg multibeam vendor format
0042_20140127_190838_KM710.all.mb58.gz 199.59MB Kongsberg multibeam vendor format
0043_20140127_193838_KM710.all.mb58.gz 201.86MB Kongsberg multibeam vendor format
0044_20140127_200838_KM710.all.mb58.gz 198.75MB Kongsberg multibeam vendor format
0045_20140127_203838_KM710.all.mb58.gz 196.23MB Kongsberg multibeam vendor format
0046_20140127_210838_KM710.all.mb58.gz 190.86MB Kongsberg multibeam vendor format
0047_20140127_213838_KM710.all.mb58.gz 202.29MB Kongsberg multibeam vendor format
0048_20140127_220838_KM710.all.mb58.gz 202.96MB Kongsberg multibeam vendor format
0049_20140127_223838_KM710.all.mb58.gz 227.15MB Kongsberg multibeam vendor format
0050_20140127_230838_KM710.all.mb58.gz 272.37MB Kongsberg multibeam vendor format
0051_20140127_233838_KM710.all.mb58.gz 210.70MB Kongsberg multibeam vendor format
0052_20140128_000838_KM710.all.mb58.gz 200.65MB Kongsberg multibeam vendor format
0053_20140128_003838_KM710.all.mb58.gz 204.22MB Kongsberg multibeam vendor format
0054_20140128_010839_KM710.all.mb58.gz 100.78MB Kongsberg multibeam vendor format
0055_20140128_013839_KM710.all.mb58.gz 333.19MB Kongsberg multibeam vendor format
0056_20140128_032049_KM710.all.mb58.gz 180.11MB Kongsberg multibeam vendor format
0057_20140128_035049_KM710.all.mb58.gz 190.13MB Kongsberg multibeam vendor format
0058_20140128_042050_KM710.all.mb58.gz 191.67MB Kongsberg multibeam vendor format
0059_20140128_045049_KM710.all.mb58.gz 104.48MB Kongsberg multibeam vendor format
0060_20140128_052051_KM710.all.mb58.gz 54.31MB Kongsberg multibeam vendor format
0061_20140128_055050_KM710.all.mb58.gz 50.48MB Kongsberg multibeam vendor format
0062_20140128_062051_KM710.all.mb58.gz 53.46MB Kongsberg multibeam vendor format
0063_20140128_065050_KM710.all.mb58.gz 52.18MB Kongsberg multibeam vendor format
0064_20140128_072051_KM710.all.mb58.gz 55.64MB Kongsberg multibeam vendor format
0065_20140128_075052_KM710.all.mb58.gz 56.36MB Kongsberg multibeam vendor format
0066_20140128_082052_KM710.all.mb58.gz 54.38MB Kongsberg multibeam vendor format
0067_20140128_085051_KM710.all.mb58.gz 54.75MB Kongsberg multibeam vendor format
0068_20140128_092051_KM710.all.mb58.gz 50.03MB Kongsberg multibeam vendor format
0069_20140128_095052_KM710.all.mb58.gz 52.03MB Kongsberg multibeam vendor format
0070_20140128_102050_KM710.all.mb58.gz 80.57MB Kongsberg multibeam vendor format
0071_20140128_105050_KM710.all.mb58.gz 122.80MB Kongsberg multibeam vendor format
0072_20140128_112050_KM710.all.mb58.gz 105.98MB Kongsberg multibeam vendor format
0073_20140128_115049_KM710.all.mb58.gz 105.21MB Kongsberg multibeam vendor format
0074_20140128_122050_KM710.all.mb58.gz 105.91MB Kongsberg multibeam vendor format
0075_20140128_125050_KM710.all.mb58.gz 142.28MB Kongsberg multibeam vendor format
0076_20140128_132050_KM710.all.mb58.gz 148.80MB Kongsberg multibeam vendor format
0077_20140128_135050_KM710.all.mb58.gz 149.72MB Kongsberg multibeam vendor format
0078_20140128_142050_KM710.all.mb58.gz 154.93MB Kongsberg multibeam vendor format
0079_20140128_145050_KM710.all.mb58.gz 154.80MB Kongsberg multibeam vendor format
0080_20140128_152050_KM710.all.mb58.gz 157.65MB Kongsberg multibeam vendor format
0081_20140128_155050_KM710.all.mb58.gz 158.83MB Kongsberg multibeam vendor format
0082_20140128_162050_KM710.all.mb58.gz 154.60MB Kongsberg multibeam vendor format
0083_20140128_165050_KM710.all.mb58.gz 132.10MB Kongsberg multibeam vendor format
0084_20140128_172050_KM710.all.mb58.gz 181.56MB Kongsberg multibeam vendor format
0085_20140128_175050_KM710.all.mb58.gz 184.04MB Kongsberg multibeam vendor format
0086_20140128_182050_KM710.all.mb58.gz 181.68MB Kongsberg multibeam vendor format
0087_20140128_185050_KM710.all.mb58.gz 172.55MB Kongsberg multibeam vendor format
0088_20140128_192050_KM710.all.mb58.gz 141.73MB Kongsberg multibeam vendor format
0089_20140128_195050_KM710.all.mb58.gz 157.83MB Kongsberg multibeam vendor format
0090_20140128_202050_KM710.all.mb58.gz 160.57MB Kongsberg multibeam vendor format
0091_20140128_205050_KM710.all.mb58.gz 159.30MB Kongsberg multibeam vendor format
0092_20140128_212050_KM710.all.mb58.gz 159.76MB Kongsberg multibeam vendor format
0093_20140128_215050_KM710.all.mb58.gz 159.49MB Kongsberg multibeam vendor format
0094_20140128_222050_KM710.all.mb58.gz 163.92MB Kongsberg multibeam vendor format
0095_20140128_225050_KM710.all.mb58.gz 166.98MB Kongsberg multibeam vendor format
0096_20140128_232050_KM710.all.mb58.gz 169.01MB Kongsberg multibeam vendor format
0097_20140128_235050_KM710.all.mb58.gz 167.83MB Kongsberg multibeam vendor format
0098_20140129_002050_KM710.all.mb58.gz 167.98MB Kongsberg multibeam vendor format
0099_20140129_005050_KM710.all.mb58.gz 171.67MB Kongsberg multibeam vendor format
0100_20140129_012050_KM710.all.mb58.gz 182.71MB Kongsberg multibeam vendor format
0101_20140129_015050_KM710.all.mb58.gz 163.99MB Kongsberg multibeam vendor format
0102_20140129_022050_KM710.all.mb58.gz 167.42MB Kongsberg multibeam vendor format
0103_20140129_025050_KM710.all.mb58.gz 172.35MB Kongsberg multibeam vendor format
0104_20140129_032051_KM710.all.mb58.gz 142.48MB Kongsberg multibeam vendor format
0105_20140129_035050_KM710.all.mb58.gz 107.14MB Kongsberg multibeam vendor format
0106_20140129_042054_KM710.all.mb58.gz 33.73MB Kongsberg multibeam vendor format

Metadata Files: 3

Files File Size Description
KM1404_Multibeam.xml NCEI created ISO metadata
em122_bag_info.tar.gz 1.2KB Additional cruise information
em710_bag_info.tar.gz 5.3KB Additional cruise information